Wind_Speed
11 13 14 15 16 17 18 19 19 20 21 21 16 12 9 7 7 6 7 7 7 7 8 11 12 13 14 12 10 8 7 6 5 7 8 9 8 8 8 10 9 9 10
10 12 14 15 15 17 17 18 19 20 22 24 16 12 8 6 6 6 7 6 6 6 9 12 13 14 13 10 13 12 10 9 9 9 10 7 6 7 7 8 8 9 11
8 11 13 15 16 16 16 16 17 19 21 23 16 13 8 7 7 8 9 7 7 8 10 12 13 16 13 11 11 12 14 13 10 10 10 9 7 9 12 13 12 13 14
8 10 12 14 15 15 15 17 19 20 21 24 16 13 9 7 6 7 8 7 8 9 11 13 14 14 17 12 14 13 13 9 11 11 11 8 10 11 12 12 13 13 17
8 10 12 13 14 14 15 17 18 20 20 24 14 10 9 6 5 4 5 4 4 5 7 8 10 10 15 12 11 11 11 11 12 13 14 11 12 11 12 13 14 14 18
8 9 11 12 13 14 15 16 18 17 16 23 13 5 7 6 3 3 1 1 1 2 4 7 8 9 9 10 11 10 9 12 12 12 15 14 13 12 13 14 15 14 18
7 9 11 11 12 13 15 16 17 17 15 21 13 10 2 2 6 4 4 5 5 3 6 8 7 8 9 10 8 8 9 11 11 13 14 14 14 12 14 16 17 16 18
7 9 10 10 11 11 11 12 13 13 9 14 9 4 4 4 5 6 2 4 4 7 9 9 8 7 10 10 8 7 10 12 12 11 12 13 15 14 14 15 15 16 17
7 8 8 10 11 11 11 11 11 10 9 7 9 2 3 2 8 4 5 9 8 14 15 16 10 14 14 10 5 7 11 12 12 11 10 11 12 14 13 14 14 14 16
5 8 9 10 11 10 11 11 11 10 9 9 6 2 5 6 2 4 3 10 6 21 19 14 23 13 8 5 5 5 7 9 11 12 12 11 10 11 12 13 14 15 16
6 8 10 10 10 11 11 11 11 11 10 10 9 7 5 8 10 8 4 6 24 19 13 26 13 14 7 4 3 2 5 10 13 13 11 11 11 11 11 12 13 13 14
6 9 10 10 10 11 12 13 12 12 12 11 11 12 13 9 5 8 4 6 13 18 24 10 5 7 0 3 3 4 7 12 14 12 10 11 11 12 12 12 13 13 13
11 12 12 13 13 13 12 13 13 13 13 13 13 14 15 18 19 19 17 13 6 12 11 16 13 15 7 5 4 3 9 15 16 13 10 10 9 10 11 12 13 13 12
13 13 13 13 13 14 14 14 14 14 15 15 15 15 17 17 19 20 18 9 8 8 15 11 15 9 5 6 5 8 17 17 16 14 11 10 11 11 11 10 11 11 11
12 12 13 14 14 14 15 16 16 15 15 15 15 16 17 18 18 19 20 21 11 7 11 10 8 7 6 11 16 19 19 18 17 14 12 11 12 11 11 9 9 9 9
12 13 14 15 16 16 16 16 17 16 17 17 16 17 17 17 18 17 18 20 21 17 8 13 17 20 22 23 23 22 22 20 17 16 13 12 12 11 10 9 9 8 7
13 14 15 16 17 17 16 17 17 18 18 18 17 18 19 17 19 18 17 19 21 21 13 27 23 22 25 25 24 21 20 20 19 17 14 13 13 13 11 9 9 7 6
14 15 16 16 17 17 17 17 19 19 19 19 19 18 19 17 19 20 20 21 23 23 19 19 23 23 26 26 26 25 22 19 18 17 16 16 15 14 12 10 9 7 5
16 17 17 19 20 19 20 19 19 20 20 19 20 20 21 20 22 23 22 22 23 22 24 18 23 19 22 24 23 23 22 21 19 17 16 15 14 12 13 12 10 8 6
17 19 20 20 20 20 21 20 20 20 20 22 21 20 20 20 21 23 23 24 23 22 22 20 17 19 19 21 18 20 22 20 19 17 16 16 16 15 14 14 12 12 8
19 21 22 23 22 22 23 22 22 22 22 23 23 22 21 20 21 21 21 23 22 21 21 20 15 14 17 16 19 18 19 21 20 20 20 19 17 16 14 14 13 13 12
22 23 23 23 24 24 24 24 23 24 24 25 25 26 23 21 21 20 19 19 20 20 19 17 14 14 19 21 21 21 22 12 3 8 10 12 11 10 9 13 13 13 14
24 26 27 26 26 26 26 26 24 24 24 24 25 25 23 23 22 21 20 20 20 19 18 20 19 18 19 22 19 15 15 14 11 15 10 13 17 19 13 12 13 13 15
26 27 27 27 27 28 26 25 24 23 24 23 23 22 21 21 21 19 18 20 20 18 16 15 17 19 20 20 18 16 15 13 12 14 13 6 8 12 9 9 11 12 13
27 29 29 28 28 28 25 24 23 23 23 23 22 21 19 19 19 18 15 20 20 19 14 14 15 16 16 16 15 14 16 10 5 7 8 9 6 6 9 11 11 11 13
29 29 30 28 28 28 26 24 20 20 21 22 22 21 21 19 18 18 15 16 20 21 20 19 16 16 15 16 14 15 17 14 9 3 8 10 4 3 2 2 3 8 11
Wind_Direction
40 33 27 21 18 16 13 11 9 6 5 4 359 352 353 360 11 25 30 41 40 23 39 38 27 13 7 4 358 344 338 343 353 343 341 339 334 324 318 306 299 297 301
27 23 20 15 13 13 10 7 5 3 5 4 8 12 17 34 46 44 55 48 53 42 46 37 27 19 9 3 5 14 18 17 10 357 341 334 321 319 356 358 356 339 326
11 11 11 10 8 7 4 4 7 4 6 9 18 17 42 49 50 83 78 67 51 48 44 47 34 20 16 10 4 3 5 2 359 343 344 344 358 4 354 349 341 329 327
357 360 3 4 2 359 0 3 3 5 7 12 19 37 42 49 83 90 85 79 70 56 48 28 21 22 22 9 8 2 1 349 346 349 344 9 6 1 348 338 332 328 330
341 351 355 355 356 359 0 0 3 2 4 8 21 45 49 50 77 98 83 74 59 60 36 3 1 20 22 19 358 347 360 355 347 351 352 358 5 356 349 338 337 330 335
333 341 344 347 353 358 0 0 359 2 5 2 11 24 51 48 44 73 84 108 77 34 345 340 352 6 5 358 3 358 0 2 352 343 350 351 342 344 339 343 343 333 338
328 333 340 344 348 353 358 357 356 355 3 6 10 351 310 324 53 30 59 74 73 40 4 355 343 344 347 351 351 5 349 356 357 346 346 348 345 358 349 343 341 338 338
334 333 335 340 338 337 343 349 354 355 350 7 12 351 355 325 294 315 273 7 2 359 343 335 328 320 330 328 329 342 346 349 354 349 346 341 344 355 346 338 338 339 337
334 338 344 343 344 338 333 333 339 345 335 349 6 33 359 294 327 319 302 303 319 346 340 331 318 309 300 301 304 338 344 346 352 346 347 345 347 348 340 338 340 336 342
354 349 347 344 342 339 334 332 327 325 318 322 343 264 282 273 294 321 299 310 280 326 331 337 327 322 311 259 256 303 321 340 351 348 338 342 348 343 341 341 341 342 343
354 347 341 339 337 335 331 326 321 315 306 299 299 293 280 273 257 244 291 299 309 315 320 332 332 312 298 253 232 309 339 335 339 338 335 330 337 340 341 343 343 342 345
340 333 331 328 329 324 322 317 312 308 303 292 286 275 262 255 254 246 261 284 295 315 319 314 344 12 279 221 256 320 334 333 335 331 333 328 333 335 340 341 343 346 351
330 334 334 333 328 323 322 314 311 311 305 296 291 283 274 268 269 267 270 282 277 304 311 324 305 317 269 224 216 283 336 335 332 326 318 317 318 327 335 338 341 347 353
328 330 330 329 328 328 327 321 320 317 311 305 298 290 285 279 277 272 260 268 292 285 289 277 305 301 297 222 249 297 318 320 321 318 310 305 309 316 322 328 336 346 351
325 325 325 325 326 325 322 319 320 318 310 306 300 296 291 290 285 281 276 270 249 290 293 275 261 271 280 293 299 300 308 311 311 306 300 294 300 307 314 316 323 335 344
326 327 327 326 327 325 324 322 321 319 312 309 305 299 295 295 289 284 280 275 268 252 273 273 270 274 275 278 290 294 299 300 300 299 291 288 286 294 300 304 311 323 334
327 326 324 323 323 324 326 323 320 317 312 310 309 306 301 301 294 291 287 280 271 261 258 280 276 277 278 279 285 285 294 296 294 295 287 285 281 280 280 286 296 308 314
324 322 320 319 320 321 320 319 316 314 310 309 310 307 300 301 295 294 292 285 280 275 258 268 280 278 275 283 286 285 284 283 284 290 288 283 277 270 263 266 277 283 288
327 326 324 323 322 321 318 316 312 309 306 303 304 302 301 301 300 302 298 290 285 282 275 263 275 277 277 283 284 285 285 282 281 280 279 284 279 265 253 255 257 256 252
329 329 325 321 317 312 310 310 308 305 302 301 300 298 297 296 298 300 298 294 292 287 282 271 266 274 272 284 280 281 286 285 284 277 273 278 272 263 253 251 250 252 240
329 326 321 318 314 310 309 310 307 302 299 297 297 296 293 291 291 293 290 292 291 286 281 274 264 271 268 267 267 281 280 288 285 279 278 275 265 257 246 240 248 250 245
322 320 317 313 310 308 308 309 307 302 300 297 296 297 293 290 294 293 289 282 278 275 270 265 261 256 269 274 281 283 278 278 285 265 260 267 251 239 258 259 253 246 245
320 318 317 315 312 311 310 309 307 303 296 292 290 293 294 297 302 300 296 293 288 281 267 268 265 262 272 279 286 283 269 264 253 268 268 273 272 274 267 266 258 253 239
321 319 317 315 312 311 313 311 308 301 298 291 287 287 288 295 302 304 303 304 299 291 289 288 280 277 277 280 276 274 273 272 269 269 255 259 261 272 271 255 262 258 242
317 314 312 311 310 308 311 313 310 302 298 294 290 283 286 292 301 299 298 299 304 301 299 299 296 295 296 290 276 262 251 239 249 252 239 238 256 269 276 269 255 248 232
310 310 309 309 311 308 309 310 308 303 300 300 300 293 285 287 300 293 292 297 299 299 304 306 302 299 301 293 275 262 258 230 218 245 230 203 242 246 297 307 279 233 220
Height
840 839 838 836 835 832 830 828 825 823 820 817 813 811 809 808 808 808 808 808 807 807 806 805 805 804 802 801 800 798 797 796 795 794 793 791 790 789 788 788 786 786 785
840 839 838 837 835 833 831 828 826 823 820 816 812 809 808 808 807 807 807 809 807 807 807 806 805 804 803 801 799 798 796 795 795 794 792 791 790 788 787 786 784 784 783
841 840 839 837 835 833 831 829 827 824 821 816 812 809 808 808 808 807 807 808 809 808 807 806 806 804 802 801 800 799 797 796 795 794 792 790 789 788 787 785 783 783 781
842 840 839 837 835 833 831 828 826 823 820 817 814 810 810 809 809 808 808 808 808 809 808 808 805 804 802 802 801 799 798 796 795 793 791 790 789 788 786 785 783 781 778
841 840 838 837 835 833 831 829 827 824 821 818 815 812 811 813 811 809 808 808 808 808 807 807 806 804 803 802 802 800 797 796 795 793 791 790 788 787 786 784 781 778 776
841 840 838 836 835 833 832 830 827 826 823 820 816 815 813 813 813 810 808 808 807 806 806 805 804 803 803 802 801 800 798 796 794 793 791 789 788 786 784 782 779 777 775
840 839 838 836 834 833 832 830 828 826 824 821 817 815 814 815 814 812 810 808 807 805 805 804 803 802 802 801 800 799 798 796 794 793 791 789 787 785 783 781 779 776 773
838 838 836 835 833 832 831 830 828 826 825 823 821 821 819 816 814 812 811 810 808 807 804 802 801 801 800 799 799 798 797 796 794 792 790 788 786 784 782 780 778 775 772
837 836 835 834 832 831 830 830 828 826 826 823 822 824 823 824 817 810 811 810 808 807 804 802 800 798 797 797 797 797 795 794 793 791 788 787 785 783 782 779 777 774 770
836 836 835 833 832 830 829 829 827 826 825 824 823 822 824 823 823 817 808 807 806 804 801 799 797 794 793 793 794 794 794 792 791 790 788 786 783 782 780 778 775 772 769
835 834 833 831 830 828 827 826 826 824 822 822 822 821 821 820 819 821 814 806 803 801 799 796 792 790 792 792 792 791 791 791 789 787 785 784 782 780 778 776 774 771 768
833 832 831 829 827 826 825 824 823 821 820 818 817 817 818 817 815 816 814 808 805 799 798 794 791 789 786 789 792 791 790 788 786 784 783 782 780 778 776 774 771 769 766
830 830 829 827 826 824 822 821 819 818 817 815 814 812 812 812 812 810 811 807 803 798 796 795 792 788 785 785 785 787 787 786 783 782 781 780 778 775 774 772 770 768 765
828 827 827 825 824 822 820 819 817 815 814 812 811 809 807 806 807 807 806 805 799 797 794 791 789 788 786 783 784 784 783 781 779 778 777 776 774 772 770 769 767 766 764
827 826 825 823 822 820 818 815 813 812 810 808 807 805 804 802 801 800 801 800 800 793 788 786 786 784 785 785 783 781 780 778 776 774 772 771 770 769 767 766 764 763 762
825 824 823 821 819 817 816 813 810 809 807 805 804 801 799 798 796 795 794 794 794 792 786 782 781 780 780 779 778 777 776 774 772 770 768 766 765 764 764 762 761 760 759
823 821 820 817 816 814 811 809 808 806 804 801 800 798 795 794 791 790 789 788 786 785 783 776 776 776 774 773 772 771 770 769 768 767 764 762 761 760 759 758 757 756 756
821 819 816 814 812 809 808 806 804 802 799 797 795 793 791 789 787 785 784 782 781 779 778 772 770 769 768 767 767 766 764 763 762 762 761 759 756 755 755 754 754 754 753
820 818 816 813 810 808 805 803 801 798 795 793 790 788 787 785 782 780 779 776 773 773 771 770 764 763 762 762 761 759 759 757 756 756 755 755 754 752 751 751 750 749 750
817 815 812 810 807 805 802 799 796 793 790 788 786 784 781 779 777 776 774 771 768 767 765 764 762 758 757 756 756 755 751 751 751 751 750 749 749 749 748 748 748 747 747
814 812 809 807 804 801 798 795 791 788 784 781 779 778 776 774 772 770 767 764 763 762 759 758 757 755 751 751 750 750 748 746 745 744 743 744 743 743 742 742 744 744 745
812 809 805 802 799 796 793 790 787 783 780 777 774 773 771 769 767 765 762 760 757 755 754 752 751 749 746 746 745 745 744 743 742 739 738 739 738 739 740 740 739 738 741
808 804 801 797 793 791 789 786 783 779 775 771 768 768 766 765 762 759 756 754 752 750 748 746 744 743 741 740 741 739 738 739 739 738 738 735 736 735 736 736 737 737 736
803 799 795 793 789 785 783 780 777 773 770 765 763 762 761 759 757 755 751 749 746 745 744 742 740 738 737 736 735 735 735 734 734 733 734 733 730 731 731 732 732 733 734
798 794 790 786 783 779 777 774 770 767 763 760 759 756 754 754 752 750 748 745 743 740 740 738 736 734 733 732 731 730 730 730 730 729 728 730 728 727 728 727 728 728 730
793 790 786 783 779 775 772 768 765 762 759 755 752 751 750 748 747 745 743 742 739 737 735 733 731 729 727 727 726 726 726 726 726 724 724 726 724 726 724 724 723 724 726